CAPE
0 0 0 0 0 0 0 0 0 0 0 0 0 0 0 0 0 0 0 0 0 0 0 0 0 0 0 0 0 0 0 0 0 0 0 0 0 0 0 0 0 0 0 0 0
0 0 0 0 0 0 0 0 0 0 0 0 0 0 0 0 0 0 0 0 0 0 0 0 0 0 0 0 0 0 0 0 0 0 0 0 0 0 0 0 0 0 0 0 0
0 0 0 0 0 0 0 0 0 0 0 0 0 0 0 0 0 0 0 0 0 0 0 0 0 0 0 0 0 0 0 0 0 0 0 0 0 0 0 0 0 0 0 0 0
1 1 0 0 0 0 0 0 0 0 0 0 0 0 0 0 0 0 0 0 0 0 0 0 0 0 0 0 0 0 0 0 0 0 0 0 0 0 0 0 0 0 0 0 0
0 0 0 0 0 0 0 0 0 0 0 0 0 0 0 0 0 0 0 0 0 0 0 0 0 0 0 0 0 0 0 0 0 0 0 0 0 0 0 0 0 0 0 0 0
0 0 0 1 0 0 0 0 0 0 0 0 0 0 0 0 0 0 0 0 0 0 0 0 0 0 0 0 0 0 0 0 0 0 0 0 0 0 0 0 0 0 0 0 0
0 0 0 0 0 0 0 0 0 0 0 0 0 0 0 0 0 0 0 0 0 0 0 0 0 0 0 0 0 0 0 0 0 0 0 0 0 0 0 0 0 0 0 0 0
0 0 0 0 0 0 0 0 0 0 0 0 0 0 0 0 0 0 0 0 0 0 0 0 0 0 0 0 0 0 0 0 0 0 0 0 0 0 0 0 0 0 0 0 0
0 0 0 0 0 0 0 0 0 0 0 0 0 0 0 0 0 0 0 0 0 0 0 0 0 0 0 0 0 0 0 0 0 0 0 0 0 0 0 0 0 0 0 0 0
0 0 0 0 0 0 0 0 0 0 0 0 0 0 0 0 0 0 0 0 0 0 0 0 0 0 0 0 0 0 0 0 0 0 0 0 0 0 0 0 0 0 0 0 0
0 0 0 0 0 0 0 0 0 0 0 0 0 0 0 0 0 0 0 0 0 0 0 0 0 0 0 0 0 0 0 0 0 0 0 0 0 0 0 0 0 0 0 0 0
0 0 0 0 0 0 0 0 0 0 0 0 0 0 0 0 0 0 0 0 0 0 0 0 0 0 0 0 0 0 0 0 0 0 0 0 0 0 0 0 0 0 0 0 0
0 0 0 0 0 0 0 0 0 0 0 0 0 0 0 0 0 0 0 0 0 0 0 0 0 0 0 0 0 0 0 0 0 0 0 0 0 0 0 0 0 0 0 0 0
0 0 0 0 0 0 0 0 0 0 0 0 0 0 0 0 0 0 0 0 0 0 0 0 0 0 0 0 0 0 0 0 0 0 0 0 0 0 0 0 0 0 0 0 0
0 0 0 0 0 0 0 0 0 0 0 0 0 0 0 0 0 0 0 0 0 0 0 0 0 0 0 0 0 0 0 0 0 0 0 0 0 0 0 0 0 0 0 0 0
0 0 0 0 0 0 0 0 0 0 0 0 0 0 0 0 0 0 0 0 0 0 0 0 0 0 0 0 0 0 0 0 0 0 0 0 0 0 0 0 0 0 0 0 0
0 0 0 0 0 0 0 0 0 0 0 0 0 0 0 0 0 0 0 0 0 0 0 0 0 0 0 0 0 0 0 0 0 0 0 0 0 0 0 0 0 0 0 0 0
0 0 0 0 0 0 0 0 0 0 0 0 0 0 0 0 0 0 0 0 0 0 0 0 0 0 0 0 0 0 0 0 0 0 0 0 0 0 0 0 0 0 0 0 0
0 0 1 0 0 0 0 2 0 0 0 0 0 0 0 0 0 0 0 0 0 0 0 0 0 0 0 0 0 0 0 0 0 0 0 0 0 0 0 0 0 0 0 0 0
0 1 0 0 0 0 2 0 0 0 0 0 0 0 0 0 0 0 0 0 0 0 0 0 0 0 0 0 0 0 0 0 0 0 0 0 0 0 0 0 0 0 0 0 0
1 12 0 0 0 1 0 0 0 0 0 0 0 0 0 0 0 0 0 0 0 0 0 0 0 0 0 0 0 0 0 0 0 0 0 0 0 0 0 0 0 0 0 0 0
3 5 0 0 1 1 1 0 0 0 0 0 0 0 0 0 0 0 0 0 0 0 0 0 0 0 0 0 0 0 0 0 0 0 0 0 0 0 0 0 0 0 0 0 0
3 10 2 1 30 5 0 0 0 0 0 0 0 0 0 0 0 0 0 0 0 0 0 0 0 0 0 0 0 0 0 0 0 0 0 0 0 0 0 0 0 0 0 0 0
9 7 3 1 7 7 12 0 0 0 0 0 0 0 0 0 0 0 0 0 0 0 0 0 0 0 0 0 0 0 0 0 0 0 0 0 0 0 0 0 0 0 0 0 0
19 8 21 9 1 3 1 1 2 1 0 0 0 0 0 1 0 1 1 0 0 0 0 0 0 0 0 0 0 0 0 0 0 0 0 0 0 0 0 0 0 0 0 0 0
16 23 1 0 0 0 1 0 1 0 1 0 2 1 0 1 0 2 0 0 0 0 0 0 0 1 0 0 0 0 0 0 0 0 0 0 0 0 0 0 0 0 0 0 0
17 3 1 0 2 1 0 0 0 2 1 4 2 3 4 0 0 0 0 11 18 0 0 0 1 0 0 0 0 0 0 0 0 0 0 0 0 0 0 0 0 0 0 0 0
CIN
0 0 0 0 0 0 0 0 0 0 0 0 0 0 0 0 0 0 0 0 0 0 0 0 0 0 0 0 0 0 0 0 0 0 0 0 0 0 0 0 0 0 0 0 0
0 0 0 0 0 0 0 0 0 0 0 0 0 0 0 0 0 0 0 0 0 0 0 0 0 0 0 0 0 0 0 0 0 0 0 0 0 0 0 0 0 0 0 0 0
0 0 0 0 0 0 0 0 0 0 0 0 0 0 0 0 0 0 0 0 0 0 0 0 0 0 0 0 0 0 0 0 0 0 0 0 0 0 0 0 0 0 0 0 0
0 0 0 0 0 0 0 0 0 0 0 0 0 0 0 0 0 0 0 0 0 0 0 0 0 0 0 0 0 0 0 0 0 0 0 0 0 0 0 0 0 0 0 0 0
0 0 0 0 0 0 0 0 0 0 0 0 0 0 0 0 0 0 0 0 0 0 0 0 0 0 0 0 0 0 0 0 0 0 0 0 0 0 0 0 0 0 0 0 0
-0 0 0 0 0 0 0 0 0 0 0 0 0 0 0 0 0 0 0 0 0 0 0 0 0 0 0 0 0 0 0 0 0 0 0 0 0 0 0 0 0 0 0 0 0
0 0 0 0 0 0 0 0 0 0 0 0 0 0 0 0 0 0 0 0 0 0 0 0 0 0 0 0 0 0 0 0 0 0 0 0 0 0 0 0 0 0 0 0 0
0 0 0 0 0 0 0 0 0 0 0 0 0 0 0 0 0 0 0 0 0 0 0 0 0 0 0 0 0 0 0 0 0 0 0 0 0 0 0 0 0 0 0 0 0
0 0 0 0 0 0 0 0 0 0 0 0 0 0 0 0 0 0 0 0 0 0 0 0 0 0 0 0 0 0 0 0 0 0 0 0 0 0 0 0 0 0 0 0 0
0 0 0 0 0 0 0 0 0 0 0 0 0 0 0 0 0 0 0 0 0 0 0 0 0 0 0 0 0 0 0 0 0 0 0 0 0 0 0 0 0 0 0 0 0
0 0 0 0 0 0 0 0 0 0 0 0 0 0 0 0 0 0 0 0 0 0 0 0 0 0 0 0 0 0 0 0 0 0 0 0 0 0 0 0 0 0 0 0 0
0 0 0 0 0 0 0 0 0 0 0 0 0 0 0 0 0 0 0 0 0 0 0 0 0 0 0 0 0 0 0 0 0 0 0 0 0 0 0 0 0 0 0 0 0
0 0 0 0 0 0 0 0 0 0 0 0 0 0 0 0 0 0 0 0 0 0 0 0 0 0 0 0 0 0 0 0 0 0 0 0 0 0 0 0 0 0 0 0 0
0 0 0 0 0 0 0 0 0 0 0 0 0 0 0 0 0 0 0 0 0 0 0 0 0 0 0 0 0 0 0 0 0 0 0 0 0 0 0 0 0 0 0 0 0
0 0 0 0 0 0 0 0 0 0 0 0 0 0 0 0 0 0 0 0 0 0 0 0 0 0 0 0 0 0 0 0 0 0 0 0 0 0 0 0 0 0 0 0 0
0 0 0 0 0 0 0 0 0 0 0 0 0 0 0 0 0 0 0 0 0 0 0 0 0 0 0 0 0 0 0 0 0 0 0 0 0 0 0 0 0 0 0 0 0
0 0 0 0 0 0 0 0 0 0 0 0 0 0 0 0 0 0 0 0 0 0 0 0 0 0 0 0 0 0 0 0 0 0 0 0 0 0 0 0 0 0 0 0 0
0 0 0 0 0 0 0 0 0 0 0 0 0 0 0 0 0 0 0 0 0 0 0 0 0 0 0 0 0 0 0 0 0 0 0 0 0 0 0 0 0 0 0 0 0
0 0 0 0 0 0 0 0 0 0 0 0 0 0 0 0 0 0 0 0 0 0 0 0 0 0 0 0 0 0 0 0 0 0 0 0 0 0 0 0 0 0 0 0 0
-0 -1 0 0 0 0 0 0 0 0 0 0 0 0 0 0 0 0 0 0 0 0 0 0 0 0 0 0 0 0 0 0 0 0 0 0 0 0 0 0 0 0 0 0 0
0 -2 0 0 0 0 0 0 0 0 0 0 0 0 0 0 0 0 0 0 0 0 0 0 0 0 0 0 0 0 0 0 0 0 0 0 0 0 0 0 0 0 0 0 0
-1 0 0 0 0 0 0 0 0 0 0 0 0 0 0 0 0 0 0 0 0 0 0 0 0 0 0 0 0 0 0 0 0 0 0 0 0 0 0 0 0 0 0 0 0
-0 -11 0 0 -0 -2 0 0 0 0 0 0 0 0 0 0 0 0 0 0 0 0 0 0 0 0 0 0 0 0 0 0 0 0 0 0 0 0 0 0 0 0 0 0 0
-0 -0 -14 -35 -1 -0 -6 0 0 0 0 0 0 0 0 0 0 0 0 0 0 0 0 0 0 0 0 0 0 0 0 0 0 0 0 0 0 0 0 0 0 0 0 0 0
-0 0 -3 -5 0 0 -0 -0 -0 -0 0 -1 0 -0 0 0 0 0 0 0 0 0 0 0 0 0 0 0 0 0 0 0 0 0 0 0 0 0 0 0 0 0 0 0 0
-0 -0 -5 0 0 0 0 0 0 0 -3 -0 0 -1 -2 0 0 -29 0 0 0 0 0 0 0 0 0 0 0 0 0 0 0 0 0 0 0 0 0 0 0 0 0 0 0
-2 -11 0 0 -2 -0 0 0 -0 0 0 0 -0 -1 -1 -1 0 0 0 -15 -5 0 0 0 0 0 0 0 0 0 0 0 0 0 0 0 0 0 0 0 0 0 0 0 0
Wind_Speed
24 25 26 26 26 26 27 27 27 27 26 26 26 25 23 20 17 14 8 11 12 12 14 15 14 13 12 12 12 13 13 11 9 13 13 13 9 11 11 8 7 4 7 13 8
26 26 27 28 28 28 29 29 29 29 29 28 28 27 25 22 17 8 10 10 11 12 13 13 14 13 14 13 13 11 13 14 17 16 14 12 8 10 12 5 3 4 7 8 6
27 28 29 29 30 30 30 31 31 30 30 30 30 28 25 22 21 18 13 8 10 11 15 17 18 14 13 12 12 14 14 17 19 17 18 15 10 7 11 4 5 1 1 2 2
29 30 30 31 31 32 32 32 32 32 32 32 31 28 24 20 25 17 14 12 10 11 14 15 16 16 18 15 13 18 17 18 22 20 19 17 19 13 6 4 16 11 5 2 2
30 31 32 33 34 34 35 35 34 34 34 34 31 27 22 23 24 16 14 13 12 12 14 14 16 17 21 23 20 18 24 24 22 21 20 19 16 16 13 7 7 6 11 4 4
32 33 34 35 35 36 37 37 37 36 36 35 30 24 24 30 19 13 14 14 14 13 15 15 18 21 26 25 25 27 27 27 25 20 22 23 23 19 18 8 7 8 8 8 7
34 34 35 36 37 38 39 40 40 39 38 33 26 21 28 28 18 16 14 18 16 16 18 16 20 20 24 26 25 26 33 31 25 24 26 24 31 21 14 19 16 11 9 9 9
34 35 36 37 38 40 41 42 42 41 35 28 22 22 30 22 19 19 17 19 17 18 19 19 18 21 22 25 27 29 29 36 29 19 21 21 36 25 20 16 15 15 16 15 13
34 35 36 37 39 40 42 44 43 37 27 22 22 23 31 20 22 18 16 21 17 17 18 18 19 23 22 26 32 25 32 28 30 18 22 23 35 30 24 20 20 22 22 21 19
33 35 36 37 39 41 42 42 34 30 25 23 25 27 23 26 21 18 16 15 19 17 20 19 21 25 23 24 30 31 28 29 27 22 23 32 33 30 27 29 29 27 25 24 23
32 34 36 38 40 40 38 31 30 28 24 25 25 24 22 21 20 20 15 15 18 21 24 21 26 25 23 25 27 31 34 35 27 28 26 28 32 32 29 31 29 26 27 28 27
33 33 35 37 39 38 31 29 27 28 40 33 34 31 28 23 27 22 16 23 23 28 24 27 30 25 29 30 34 35 39 38 41 38 33 29 30 30 33 33 30 27 27 28 32
33 34 35 37 37 30 31 29 29 29 35 34 30 30 30 25 31 25 16 22 26 29 26 31 32 25 29 34 34 35 38 38 39 42 35 35 35 27 26 23 21 20 22 24 25
32 33 34 37 29 32 28 30 29 29 37 34 27 26 24 24 31 25 17 23 26 30 28 34 33 34 38 39 34 46 36 40 41 42 40 26 46 25 24 25 24 23 18 15 30
34 32 31 29 34 31 30 28 28 26 47 24 19 18 19 17 23 21 20 23 28 28 26 31 32 28 31 33 32 41 35 37 38 39 41 36 41 37 24 27 25 20 15 23 28
32 31 27 29 27 28 26 26 25 31 45 25 20 22 25 22 25 24 22 22 26 31 33 36 31 32 32 31 29 28 33 34 35 36 45 34 35 48 31 29 25 21 21 29 22
33 32 25 25 31 24 24 26 34 39 25 30 31 27 30 29 27 25 26 26 28 31 35 35 37 32 29 34 30 29 31 40 42 39 47 32 37 37 30 21 21 24 26 25 16
35 29 26 26 26 23 25 28 40 39 37 37 36 36 39 33 35 32 33 37 29 31 38 38 44 27 28 29 31 30 29 36 47 50 60 39 43 42 33 32 28 23 24 17 12
37 34 34 26 21 20 25 36 43 40 36 41 47 45 44 40 38 34 39 44 37 30 41 43 45 30 28 30 28 33 37 32 41 46 54 52 51 45 36 32 27 21 19 12 13
39 38 38 25 18 23 37 49 49 42 42 41 48 44 51 46 42 39 41 43 42 36 34 42 52 37 34 33 36 34 31 38 36 50 56 64 58 58 42 38 24 18 14 16 16
41 46 39 21 20 35 51 52 54 48 43 47 51 52 52 54 50 48 47 45 37 36 32 40 44 47 36 40 41 38 41 39 39 41 52 60 58 35 28 20 20 18 19 20 16
41 52 29 20 42 44 55 48 48 56 47 50 47 50 55 54 56 53 53 43 41 35 38 35 41 50 49 40 39 39 42 38 47 50 44 49 58 31 36 31 23 25 22 20 25
44 45 28 29 59 58 51 54 55 59 59 49 52 49 48 54 56 51 50 49 56 49 40 34 39 54 54 49 39 42 42 42 44 47 52 56 59 37 43 44 38 30 30 31 30
40 49 39 40 49 56 60 59 62 55 60 58 54 48 51 57 49 54 52 51 48 48 41 39 45 47 53 46 35 40 40 43 45 52 56 56 56 63 52 50 53 53 49 40 37
38 47 43 50 50 54 54 56 62 64 56 52 51 52 52 57 54 56 55 56 52 49 41 39 46 46 46 47 50 51 53 54 49 48 54 58 57 55 59 51 52 50 47 38 45
44 45 42 47 50 54 55 58 61 60 57 58 58 56 53 59 56 60 52 57 60 53 49 40 56 49 55 52 53 57 55 54 52 53 57 58 67 53 59 65 59 55 51 49 50
33 33 40 48 53 56 58 53 53 51 51 54 59 58 58 57 56 57 60 62 58 56 53 50 53 54 63 53 57 63 57 53 53 49 47 54 53 53 53 45 43 51 56 52 48
Wind_Direction
325 325 326 326 326 327 327 329 329 328 330 331 329 329 331 336 350 7 46 26 30 28 28 29 35 43 44 47 40 37 37 35 41 28 32 30 43 30 21 31 31 44 16 6 65
324 323 322 323 324 325 325 325 325 324 324 324 325 325 327 332 343 349 355 5 10 15 7 13 18 24 16 21 23 27 14 15 7 7 11 19 29 21 13 30 9 10 15 22 71
319 320 321 321 320 320 322 322 323 324 322 321 322 324 328 333 335 337 347 341 352 357 345 341 342 352 355 355 358 360 351 354 348 349 349 351 357 11 355 351 359 312 180 26 68
315 315 315 316 316 316 316 317 318 319 321 321 321 323 327 331 315 340 350 346 337 340 335 337 338 339 336 335 340 331 330 331 331 336 337 338 339 342 321 298 355 356 342 181 200
313 313 313 312 311 311 311 312 314 314 315 316 320 324 325 316 312 331 337 335 332 327 322 323 323 322 318 322 323 315 320 321 323 325 324 327 323 326 320 306 273 306 334 311 265
309 311 311 310 309 308 307 307 309 311 312 314 318 322 315 304 327 335 332 329 323 317 314 314 319 318 312 312 311 318 315 315 318 316 315 316 316 320 324 315 289 302 306 305 280
306 307 307 308 307 307 305 303 303 307 310 315 321 320 306 304 321 323 322 317 316 313 307 310 313 312 320 314 317 315 310 312 310 306 310 315 306 300 291 316 321 316 296 299 290
306 306 307 307 307 306 304 302 301 303 311 319 322 317 304 314 317 311 313 313 313 311 309 315 313 308 308 315 312 310 312 309 316 307 310 314 304 312 310 303 301 310 315 310 298
307 308 308 309 309 308 305 300 299 307 316 320 317 312 305 319 308 309 308 307 311 312 312 313 309 304 308 304 305 304 304 306 311 307 308 301 304 315 318 309 306 308 309 310 302
308 309 311 312 311 309 306 304 311 312 313 313 308 307 304 305 309 312 313 310 310 309 308 303 301 297 299 295 297 304 302 305 307 316 303 299 295 301 301 302 302 305 305 303 302
310 312 313 313 312 310 313 319 314 312 309 302 308 303 313 316 315 307 313 306 308 302 296 294 290 283 283 286 290 298 299 300 294 309 304 292 292 295 297 297 298 299 302 304 303
309 312 315 316 315 312 315 314 314 312 303 298 294 291 297 300 298 293 298 293 291 287 288 293 275 281 293 293 293 296 297 297 301 306 303 297 290 294 297 296 297 297 304 306 308
307 309 312 314 314 320 316 315 316 315 305 303 294 292 291 286 288 283 269 286 287 284 278 275 290 293 287 291 290 289 290 295 296 304 302 304 297 283 291 284 286 284 295 302 306
306 308 310 313 314 317 317 318 318 317 305 307 305 304 300 296 294 296 271 285 285 282 281 283 284 280 284 285 288 289 292 295 298 300 298 300 300 296 305 303 302 300 286 300 311
301 304 309 315 310 312 313 318 318 317 298 316 316 326 324 306 315 310 300 289 277 285 289 288 295 287 280 282 287 290 295 294 297 296 297 292 300 302 298 299 299 302 303 315 315
299 301 305 308 309 312 320 318 313 302 290 304 315 313 311 304 305 312 306 300 302 288 284 285 293 293 292 296 292 295 297 296 296 296 288 289 290 298 296 302 308 306 309 315 315
297 295 294 301 302 314 319 309 295 284 303 298 300 304 303 303 300 299 298 290 290 294 289 292 283 287 288 290 293 289 292 293 291 288 287 297 289 283 307 307 306 305 306 315 320
299 301 295 291 300 310 311 293 282 292 281 293 296 297 294 299 295 293 293 288 282 286 293 293 292 278 284 277 290 284 279 284 289 290 291 294 288 296 301 296 295 294 301 310 317
297 293 290 290 288 298 289 283 279 289 297 297 294 292 290 290 291 291 287 286 289 273 282 290 289 291 287 288 280 287 280 286 287 291 291 289 292 298 303 296 291 289 303 301 317
294 293 289 289 279 283 281 276 278 282 293 294 287 290 291 291 287 287 287 290 287 282 275 290 287 284 287 288 284 282 289 285 283 285 285 286 292 294 300 299 291 292 293 307 310
291 286 290 281 281 276 272 273 278 283 285 287 283 284 287 288 289 290 287 288 294 296 279 285 284 284 285 279 279 280 280 281 284 280 282 287 289 309 306 316 317 301 302 312 311
287 281 285 276 276 277 272 275 279 281 283 283 285 285 282 284 286 287 285 290 300 309 293 287 289 283 280 283 282 276 276 273 275 279 281 281 277 285 296 306 308 305 303 309 305
283 284 281 276 273 273 278 276 277 279 278 282 282 282 284 283 284 281 282 284 283 286 293 299 289 284 286 286 285 280 277 275 278 279 275 275 277 283 286 290 294 296 301 302 301
287 282 281 275 273 274 275 276 276 278 278 278 282 281 281 280 278 283 284 285 285 284 286 283 279 277 277 282 292 291 279 279 275 275 275 275 278 285 285 288 290 291 293 295 296
285 281 282 278 278 279 278 277 276 276 275 280 279 274 277 279 280 278 278 280 281 280 286 287 279 277 273 276 280 279 279 280 282 277 276 282 281 284 287 292 291 293 294 296 296
284 285 286 282 281 281 280 280 282 280 278 276 272 276 273 272 273 279 278 280 281 285 277 274 279 278 275 274 276 278 281 282 277 276 277 280 282 278 287 288 288 291 291 295 297
294 293 289 282 281 281 278 283 283 288 286 283 280 277 275 273 277 276 277 279 280 281 277 275 277 278 277 277 278 275 273 274 279 278 275 278 275 284 287 284 285 291 292 295 296